Location: Enborne
(51.3833°N, 1.3667°W)
Time: 03:29:04
(UTC+00:00)

CZ-2C R/B - Pass Details

Date: 18 September 2020
Orbit: 640 x 704 km, 98.4° (Epoch: 19 October)

Event Time Altitude Azimuth Distance (km) Brightness Sun altitude
Rises 19:58:27 0° 20° (NNE) 2,962 7.1 -16.9°
Reaches altitude 10° 20:00:47 10° 29° (NNE) 2,051 6.2 -17.2°
Maximum altitude 20:04:57 38° 98° (E) 997 4.1 -17.8°
Enters shadow 20:05:31 36° 116° (ESE) 1,027 4.1 -17.9°
